Regional Weather Roundup
Issued by NWS

Home | Current Version | Previous Version | Text Only | Print | Product List | Glossary On
Versions: 1 2 3 4 5 6 7 8 9 10 11 12 13 14 15 16 17 18 19 20 21 22 23 24 25 26 27 28 29 30 31 32 33 34 35 36 37 38 39 40 41 42 43 44 45 46 47 48 49 50
000
ASUS45 KBOI 242010
RWRID
WEATHER ROUNDUP FOR IDAHO
NATIONAL WEATHER SERVICE BOISE ID
200 PM MDT THU JUL 24 2014

NOTE: "FAIR" INDICATES FEW OR NO CLOUDS BELOW 12000 FEET
WITH NO SIGNIFICANT WEATHER AND/OR OBSTRUCTIONS TO VISIBILITY

IDZ012-014-242100-
SOUTHWEST IDAHO


CITY           SKY/WX    TMP DP  RH WIND       PRES   REMARKS
BOISE          SUNNY     70  31  23 NW9G17    30.20F
CALDWELL       SUNNY     70  36  28 N6        30.22F
MOUNTAIN HOME  SUNNY     74  29  19 NW21G28   30.17F
$$

IDZ016-017-242100-
SOUTHCENTRAL IDAHO


CITY           SKY/WX    TMP DP  RH WIND       PRES   REMARKS
BURLEY         SUNNY     72  43  35 W15G23    30.17F
JEROME         SUNNY     72  40  31 W18       30.19F
TWIN FALLS     SUNNY     73  38  27 W12G25    30.20F
$$

IDZ019>023-242100-
SOUTHEAST IDAHO


CITY           SKY/WX    TMP DP  RH WIND       PRES   REMARKS
IDAHO FALLS    SUNNY     81  38  21 SW28G37   30.11F
POCATELLO      SUNNY     79  39  23 W21G32    30.16S
REXBURG        SUNNY     80  37  21 SW26G37   30.09F
$$

IDZ006-010-011-018-031-032-242100-
CENTRAL IDAHO MOUNTAINS


CITY           SKY/WX    TMP DP  RH WIND       PRES   REMARKS
MCCALL         SUNNY     62  24  23 VRB3      30.21S
HAILEY         SUNNY     73  30  20 MISG      30.15F
STANLEY          N/A     67  17  14 NW7       30.23F
SALMON         SUNNY     77  28  16 SW17      30.00S
CHALLIS        SUNNY     77  10   7 W10       30.09F
$$

IDZ002-004-006-007-026-242100-
NORTHERN IDAHO


CITY           SKY/WX    TMP DP  RH WIND       PRES   REMARKS
LEWISTON       MOSUNNY   73  40  30 W8        30.13F
LOWELL           N/A     74  42  31 CALM      30.15F
COEUR D`ALENE  CLOUDY    64  45  48 W10G22    30.11F
MULLAN PASS    CLOUDY    41  36  82 SW8       30.19R
$$


USA.gov is the U.S. government's official web portal to all federal, state and local government web resources and services.